Time,TemperatureF,DewpointF,PressureIn,WindDirection,WindDirectionDegrees,WindSpeedMPH,WindSpeedGustMPH,Humidity,HourlyPrecipIn,Conditions,Clouds,dailyrainin,SolarRadiationWatts/m^2,SoftwareType,DateUTC
2013-09-08 00:03:00,68.0,59.0,-100.00,ENE,66,4.0,12.0,73,0.00,,,0.00,0.000000,,2013-09-08 05:03:00,
2013-09-08 00:43:00,66.0,60.0,-100.00,East,97,5.0,11.0,82,0.00,,,0.00,0.000000,,2013-09-08 05:43:00,
2013-09-08 00:52:00,66.0,60.0,-100.00,East,97,5.0,11.0,82,0.00,,,0.00,0.000000,,2013-09-08 05:52:00,
2013-09-08 01:03:00,66.0,60.0,-100.00,East,97,5.0,11.0,82,0.00,,,0.00,0.000000,,2013-09-08 06:03:00,
2013-09-08 01:42:00,64.0,59.0,-100.00,ESE,106,5.0,13.0,84,0.00,,,0.00,0.000000,,2013-09-08 06:42:00,
2013-09-08 01:53:00,64.0,59.0,-100.00,ESE,106,5.0,13.0,84,0.00,,,0.00,0.000000,,2013-09-08 06:53:00,
2013-09-08 02:01:00,64.0,59.0,-100.00,ESE,106,5.0,13.0,84,0.00,,,0.00,0.000000,,2013-09-08 07:01:00,
2013-09-08 02:42:00,62.0,55.0,-100.00,ESE,113,5.0,13.0,79,0.00,,,0.00,0.000000,,2013-09-08 07:42:00,
2013-09-08 02:52:00,62.0,55.0,-100.00,ESE,113,5.0,13.0,79,0.00,,,0.00,0.000000,,2013-09-08 07:52:00,
2013-09-08 03:02:00,62.0,55.0,-100.00,ESE,113,5.0,13.0,79,0.00,,,0.00,0.000000,,2013-09-08 08:02:00,
2013-09-08 03:42:00,60.0,52.0,-100.00,East,100,4.0,10.0,74,0.00,,,0.00,0.000000,,2013-09-08 08:42:00,
2013-09-08 03:52:00,60.0,52.0,-100.00,East,100,4.0,10.0,74,0.00,,,0.00,0.000000,,2013-09-08 08:52:00,
2013-09-08 04:02:00,60.0,52.0,-100.00,East,100,4.0,10.0,74,0.00,,,0.00,0.000000,,2013-09-08 09:02:00,
2013-09-08 04:43:00,61.0,51.0,-100.00,ESE,123,3.0,8.0,69,0.00,,,0.00,0.000000,,2013-09-08 09:43:00,
2013-09-08 04:54:00,61.0,51.0,-100.00,ESE,123,3.0,8.0,69,0.00,,,0.00,0.000000,,2013-09-08 09:54:00,
2013-09-08 05:03:00,61.0,51.0,-100.00,ESE,123,3.0,8.0,69,0.00,,,0.00,0.000000,,2013-09-08 10:03:00,
2013-09-08 05:43:00,60.0,50.0,-100.00,ESE,110,3.0,8.0,69,0.00,,,0.00,0.000000,,2013-09-08 10:43:00,
2013-09-08 05:53:00,60.0,50.0,-100.00,ESE,110,3.0,8.0,69,0.00,,,0.00,0.000000,,2013-09-08 10:53:00,
2013-09-08 06:02:00,60.0,50.0,-100.00,ESE,110,3.0,8.0,69,0.00,,,0.00,0.000000,,2013-09-08 11:02:00,
2013-09-08 06:42:00,61.0,50.0,-100.00,SE,124,5.0,10.0,67,0.00,,,0.00,0.000000,,2013-09-08 11:42:00,
2013-09-08 06:52:00,61.0,50.0,-100.00,SE,124,5.0,10.0,67,0.00,,,0.00,0.000000,,2013-09-08 11:52:00,
2013-09-08 07:02:00,61.0,50.0,-100.00,SE,124,5.0,10.0,67,0.00,,,0.00,0.000000,,2013-09-08 12:02:00,
2013-09-08 07:42:00,61.0,49.0,-100.00,SE,128,5.0,14.0,64,0.00,,,0.00,2.000000,,2013-09-08 12:42:00,
2013-09-08 07:52:00,61.0,49.0,-100.00,SE,128,5.0,14.0,64,0.00,,,0.00,2.000000,,2013-09-08 12:52:00,
2013-09-08 08:02:00,61.0,49.0,-100.00,SE,128,5.0,14.0,64,0.00,,,0.00,2.000000,,2013-09-08 13:02:00,
2013-09-08 08:42:00,61.0,49.0,-100.00,SE,130,5.0,12.0,64,0.00,,,0.00,26.000000,,2013-09-08 13:42:00,
2013-09-08 08:52:00,61.0,49.0,-100.00,SE,130,5.0,12.0,64,0.00,,,0.00,26.000000,,2013-09-08 13:52:00,
2013-09-08 09:02:00,61.0,49.0,-100.00,SE,130,5.0,12.0,64,0.00,,,0.00,26.000000,,2013-09-08 14:02:00,
2013-09-08 09:42:00,60.0,50.0,-100.00,SE,130,3.0,11.0,69,0.00,,,0.00,21.000000,,2013-09-08 14:42:00,
2013-09-08 09:52:00,60.0,50.0,-100.00,SE,130,3.0,11.0,69,0.00,,,0.00,21.000000,,2013-09-08 14:52:00,
2013-09-08 10:02:00,60.0,50.0,-100.00,SE,130,3.0,11.0,69,0.00,,,0.00,21.000000,,2013-09-08 15:02:00,
2013-09-08 10:45:00,58.0,54.0,-100.00,SE,135,3.0,7.0,85,0.01,,,0.01,44.000000,,2013-09-08 15:45:00,
2013-09-08 10:55:00,58.0,54.0,-100.00,SE,135,3.0,7.0,85,0.01,,,0.01,44.000000,,2013-09-08 15:55:00,
2013-09-08 11:04:00,58.0,54.0,-100.00,SE,135,3.0,7.0,85,0.01,,,0.01,44.000000,,2013-09-08 16:04:00,
2013-09-08 11:44:00,58.0,55.0,-100.00,ESE,103,3.0,9.0,89,0.04,,,0.05,117.000000,,2013-09-08 16:44:00,
2013-09-08 11:53:00,58.0,55.0,-100.00,ESE,103,3.0,9.0,89,0.04,,,0.05,117.000000,,2013-09-08 16:53:00,
2013-09-08 12:03:00,58.0,55.0,-100.00,ESE,103,3.0,9.0,89,0.04,,,0.05,117.000000,,2013-09-08 17:03:00,
2013-09-08 12:43:00,59.0,55.0,-100.00,SE,146,6.0,13.0,86,0.00,,,0.05,222.000000,,2013-09-08 17:43:00,
2013-09-08 12:53:00,59.0,55.0,-100.00,SE,146,6.0,13.0,86,0.00,,,0.05,222.000000,,2013-09-08 17:53:00,
2013-09-08 13:02:00,59.0,55.0,-100.00,SE,146,6.0,13.0,86,0.00,,,0.05,222.000000,,2013-09-08 18:02:00,
2013-09-08 13:42:00,59.0,56.0,-100.00,SE,145,6.0,12.0,91,0.00,,,0.05,102.000000,,2013-09-08 18:42:00,
2013-09-08 13:52:00,59.0,56.0,-100.00,SE,145,6.0,12.0,91,0.00,,,0.05,102.000000,,2013-09-08 18:52:00,
2013-09-08 14:01:00,59.0,56.0,-100.00,SE,145,6.0,12.0,91,0.00,,,0.05,102.000000,,2013-09-08 19:01:00,
2013-09-08 14:42:00,60.0,58.0,-100.00,SE,134,4.0,9.0,92,0.00,,,0.05,92.000000,,2013-09-08 19:42:00,
2013-09-08 14:52:00,60.0,58.0,-100.00,SE,134,4.0,9.0,92,0.00,,,0.05,92.000000,,2013-09-08 19:52:00,
2013-09-08 15:03:00,60.0,58.0,-100.00,SE,134,4.0,9.0,92,0.00,,,0.05,92.000000,,2013-09-08 20:03:00,
2013-09-08 15:42:00,59.0,57.0,-100.00,SE,139,6.0,11.0,92,0.01,,,0.06,74.000000,,2013-09-08 20:42:00,
2013-09-08 15:53:00,59.0,57.0,-100.00,SE,139,6.0,11.0,92,0.01,,,0.06,74.000000,,2013-09-08 20:53:00,
2013-09-08 16:02:00,59.0,57.0,-100.00,SE,139,6.0,11.0,92,0.01,,,0.06,74.000000,,2013-09-08 21:02:00,
2013-09-08 16:44:00,60.0,58.0,-100.00,SSE,163,6.0,13.0,92,0.00,,,0.06,150.000000,,2013-09-08 21:44:00,
2013-09-08 16:54:00,60.0,58.0,-100.00,SSE,163,6.0,13.0,92,0.00,,,0.06,150.000000,,2013-09-08 21:54:00,
2013-09-08 17:04:00,60.0,58.0,-100.00,SSE,163,6.0,13.0,92,0.00,,,0.06,150.000000,,2013-09-08 22:04:00,
2013-09-08 17:44:00,59.0,57.0,-100.00,SE,139,4.0,11.0,92,0.00,,,0.06,70.000000,,2013-09-08 22:44:00,
2013-09-08 17:53:00,59.0,57.0,-100.00,SE,139,4.0,11.0,92,0.00,,,0.06,70.000000,,2013-09-08 22:53:00,
2013-09-08 18:04:00,59.0,57.0,-100.00,SE,139,4.0,11.0,92,0.00,,,0.06,70.000000,,2013-09-08 23:04:00,
2013-09-08 18:42:00,59.0,57.0,-100.00,SE,145,5.0,8.0,93,0.00,,,0.06,50.000000,,2013-09-08 23:42:00,
2013-09-08 18:52:00,59.0,57.0,-100.00,SE,145,5.0,8.0,93,0.00,,,0.06,50.000000,,2013-09-08 23:52:00,
2013-09-08 19:02:00,59.0,57.0,-100.00,SE,145,5.0,8.0,93,0.00,,,0.06,50.000000,,2013-09-09 00:02:00,
2013-09-08 19:42:00,59.0,57.0,-100.00,SSE,150,4.0,11.0,94,0.00,,,0.06,12.000000,,2013-09-09 00:42:00,
2013-09-08 19:52:00,59.0,57.0,-100.00,SSE,150,4.0,11.0,94,0.00,,,0.06,12.000000,,2013-09-09 00:52:00,
2013-09-08 20:01:00,59.0,57.0,-100.00,SSE,150,4.0,11.0,94,0.00,,,0.06,12.000000,,2013-09-09 01:01:00,
2013-09-08 20:42:00,59.0,58.0,-100.00,SSE,152,4.0,9.0,95,0.00,,,0.06,6.000000,,2013-09-09 01:42:00,
2013-09-08 20:52:00,59.0,58.0,-100.00,SSE,152,4.0,9.0,95,0.00,,,0.06,6.000000,,2013-09-09 01:52:00,
2013-09-08 21:02:00,59.0,58.0,-100.00,SSE,152,4.0,9.0,95,0.00,,,0.06,6.000000,,2013-09-09 02:02:00,
2013-09-08 21:42:00,58.0,57.0,-100.00,SE,146,4.0,10.0,97,0.00,,,0.06,0.000000,,2013-09-09 02:42:00,
2013-09-08 21:53:00,58.0,57.0,-100.00,SE,146,4.0,10.0,97,0.00,,,0.06,0.000000,,2013-09-09 02:53:00,
2013-09-08 22:02:00,58.0,57.0,-100.00,SE,146,4.0,10.0,97,0.00,,,0.06,0.000000,,2013-09-09 03:02:00,
2013-09-08 22:44:00,58.0,57.0,-100.00,SSE,152,4.0,9.0,98,0.00,,,0.06,0.000000,,2013-09-09 03:44:00,
2013-09-08 22:55:00,58.0,57.0,-100.00,SSE,152,4.0,9.0,98,0.00,,,0.06,0.000000,,2013-09-09 03:55:00,
2013-09-08 23:03:00,58.0,57.0,-100.00,SSE,152,4.0,9.0,98,0.00,,,0.06,0.000000,,2013-09-09 04:03:00,
2013-09-08 23:43:00,58.0,57.0,-100.00,SE,145,2.0,9.0,98,0.00,,,0.06,0.000000,,2013-09-09 04:43:00,
2013-09-08 23:54:00,58.0,57.0,-100.00,SE,145,2.0,9.0,98,0.00,,,0.06,0.000000,,2013-09-09 04:54:00,